Time,TemperatureF,DewpointF,PressureIn,WindDirection,WindDirectionDegrees,WindSpeedMPH,WindSpeedGustMPH,Humidity,HourlyPrecipIn,Conditions,Clouds,dailyrainin,SoftwareType,DateUTC
2013-02-06 00:02:00,43.7,43.7,-100.00,SW,221,9.0,11.0,-999,0.00,,,0.00,VWS V14.01,2013-02-06 08:02:00,
2013-02-06 00:07:00,43.7,43.7,-100.00,SW,214,7.0,11.0,-999,0.00,,,0.00,VWS V14.01,2013-02-06 08:07:00,
2013-02-06 00:12:00,43.7,43.7,-100.00,SSW,195,5.0,12.0,-999,0.00,,,0.00,VWS V14.01,2013-02-06 08:12:00,
2013-02-06 00:17:00,43.3,43.3,-100.00,SSW,212,5.0,12.0,-999,0.00,,,0.00,VWS V14.01,2013-02-06 08:17:00,
2013-02-06 00:22:00,43.5,43.5,-100.00,SW,227,5.0,12.0,-999,0.00,,,0.00,VWS V14.01,2013-02-06 08:22:00,
2013-02-06 00:27:00,43.2,43.2,-100.00,SSW,209,6.0,12.0,-999,0.00,,,0.00,VWS V14.01,2013-02-06 08:27:00,
2013-02-06 00:32:00,43.6,43.6,-100.00,SSW,213,7.0,7.0,-999,0.00,,,0.00,VWS V14.01,2013-02-06 08:32:00,
2013-02-06 00:37:00,43.7,43.7,-100.00,SW,231,7.0,9.0,-999,0.00,,,0.00,VWS V14.01,2013-02-06 08:37:00,
2013-02-06 00:42:00,43.6,43.6,-100.00,WSW,252,6.0,10.0,-999,0.00,,,0.00,VWS V14.01,2013-02-06 08:42:00,
2013-02-06 00:47:00,43.1,43.1,-100.00,WSW,248,5.0,10.0,-999,0.00,,,0.00,VWS V14.01,2013-02-06 08:47:00,
2013-02-06 00:52:00,42.7,42.7,-100.00,WSW,248,3.0,10.0,-999,0.00,,,0.02,VWS V14.01,2013-02-06 08:52:00,
2013-02-06 00:57:00,42.3,42.3,-100.00,WSW,248,2.0,10.0,-999,0.00,,,0.00,VWS V14.01,2013-02-06 08:57:00,
2013-02-06 01:02:00,42.5,42.5,-100.00,WSW,248,1.0,4.0,-999,0.00,,,0.00,VWS V14.01,2013-02-06 09:02:00,
2013-02-06 01:07:00,43.0,43.0,-100.00,WSW,248,6.0,7.0,-999,0.00,,,0.00,VWS V14.01,2013-02-06 09:07:00,
2013-02-06 01:12:00,43.2,43.2,-100.00,WSW,248,6.0,8.0,-999,0.00,,,0.00,VWS V14.01,2013-02-06 09:12:00,
2013-02-06 01:17:00,43.0,43.0,-100.00,SW,231,4.0,8.0,-999,0.00,,,0.00,VWS V14.01,2013-02-06 09:17:00,
2013-02-06 01:22:00,42.4,42.4,-100.00,WSW,248,6.0,8.0,-999,0.00,,,0.00,VWS V14.01,2013-02-06 09:22:00,
2013-02-06 01:27:00,42.8,42.8,-100.00,WSW,256,5.0,8.0,-999,0.00,,,0.00,VWS V14.01,2013-02-06 09:27:00,
2013-02-06 01:32:00,42.7,42.7,-100.00,SW,227,2.0,8.0,-999,0.00,,,0.00,VWS V14.01,2013-02-06 09:32:00,
2013-02-06 01:37:00,42.2,42.2,-100.00,SW,227,2.0,8.0,-999,0.00,,,0.00,VWS V14.01,2013-02-06 09:37:00,
2013-02-06 01:42:00,41.0,41.0,-100.00,SW,227,3.0,8.0,-999,0.00,,,0.00,VWS V14.01,2013-02-06 09:42:00,
2013-02-06 01:47:00,40.9,40.9,-100.00,SW,227,4.0,8.0,-999,0.00,,,0.00,VWS V14.01,2013-02-06 09:47:00,
2013-02-06 01:52:00,40.6,40.6,-100.00,SW,228,3.0,8.0,-999,0.00,,,0.00,VWS V14.01,2013-02-06 09:52:00,
2013-02-06 01:57:00,42.2,42.2,-100.00,SW,227,9.0,9.0,-999,0.00,,,0.00,VWS V14.01,2013-02-06 09:57:00,
2013-02-06 02:02:00,42.3,42.3,-100.00,SW,224,4.0,9.0,-999,0.00,,,0.00,VWS V14.01,2013-02-06 10:02:00,
2013-02-06 02:07:00,42.0,42.0,-100.00,SW,224,4.0,9.0,-999,0.00,,,0.00,VWS V14.01,2013-02-06 10:07:00,
2013-02-06 02:12:00,42.5,42.5,-100.00,WSW,237,2.0,9.0,-999,0.00,,,0.00,VWS V14.01,2013-02-06 10:12:00,
2013-02-06 02:17:00,42.7,42.7,-100.00,WSW,251,4.0,9.0,-999,0.00,,,0.00,VWS V14.01,2013-02-06 10:17:00,
2013-02-06 02:22:00,42.9,42.9,-100.00,WSW,240,5.0,9.0,-999,0.00,,,0.00,VWS V14.01,2013-02-06 10:22:00,
2013-02-06 02:27:00,43.3,43.3,-100.00,West,265,5.0,9.0,-999,0.00,,,0.00,VWS V14.01,2013-02-06 10:27:00,
2013-02-06 02:32:00,43.1,43.1,-100.00,WSW,250,3.0,8.0,-999,0.00,,,0.00,VWS V14.01,2013-02-06 10:32:00,
2013-02-06 02:37:00,42.9,42.9,-100.00,SW,214,7.0,11.0,-999,0.00,,,0.00,VWS V14.01,2013-02-06 10:37:00,
2013-02-06 02:43:00,42.2,42.2,-100.00,South,185,6.0,11.0,-999,0.00,,,0.00,VWS V14.01,2013-02-06 10:43:00,
2013-02-06 02:48:00,41.7,41.7,-100.00,South,183,4.0,11.0,-999,0.00,,,0.00,VWS V14.01,2013-02-06 10:48:00,
2013-02-06 02:53:00,40.7,40.7,-100.00,South,182,4.0,11.0,-999,0.00,,,0.00,VWS V14.01,2013-02-06 10:53:00,
2013-02-06 02:58:00,40.3,40.3,-100.00,SSW,198,4.0,11.0,-999,0.00,,,0.00,VWS V14.01,2013-02-06 10:58:00,
2013-02-06 03:03:00,41.5,41.5,-100.00,SW,236,5.0,7.0,-999,0.00,,,0.00,VWS V14.01,2013-02-06 11:03:00,
2013-02-06 03:08:00,42.5,42.5,-100.00,SW,229,7.0,9.0,-999,0.00,,,0.00,VWS V14.01,2013-02-06 11:08:00,
2013-02-06 03:13:00,42.2,42.2,-100.00,WSW,238,6.0,10.0,-999,0.00,,,0.00,VWS V14.01,2013-02-06 11:13:00,
2013-02-06 03:18:00,41.9,41.9,-100.00,SSW,207,3.0,10.0,-999,0.00,,,0.00,VWS V14.01,2013-02-06 11:18:00,
2013-02-06 03:23:00,41.3,41.3,-100.00,SSW,207,4.0,10.0,-999,0.00,,,0.00,VWS V14.01,2013-02-06 11:23:00,
2013-02-06 03:28:00,41.9,41.9,-100.00,SSW,209,3.0,10.0,-999,0.00,,,0.00,VWS V14.01,2013-02-06 11:28:00,
2013-02-06 03:33:00,42.2,42.2,-100.00,SW,216,7.0,7.0,-999,0.00,,,0.00,VWS V14.01,2013-02-06 11:33:00,
2013-02-06 03:38:00,42.2,42.2,-100.00,SW,214,6.0,9.0,-999,0.00,,,0.00,VWS V14.01,2013-02-06 11:38:00,
2013-02-06 03:43:00,41.8,41.8,-100.00,SW,228,4.0,9.0,-999,0.00,,,0.00,VWS V14.01,2013-02-06 11:43:00,
2013-02-06 03:48:00,41.9,41.9,-100.00,SW,229,7.0,9.0,-999,0.00,,,0.00,VWS V14.01,2013-02-06 11:48:00,
2013-02-06 03:53:00,41.3,41.3,-100.00,SSW,196,3.0,9.0,-999,0.00,,,0.00,VWS V14.01,2013-02-06 11:53:00,
2013-02-06 03:58:00,40.6,40.6,-100.00,SSW,196,4.0,9.0,-999,0.00,,,0.00,VWS V14.01,2013-02-06 11:58:00,
2013-02-06 04:03:00,40.9,40.9,-100.00,SW,222,3.0,7.0,-999,0.00,,,0.00,VWS V14.01,2013-02-06 12:03:00,
2013-02-06 04:08:00,41.3,41.3,-100.00,SW,221,3.0,7.0,-999,0.00,,,0.00,VWS V14.01,2013-02-06 12:08:00,
2013-02-06 04:13:00,42.3,42.3,-100.00,SW,223,4.0,7.0,-999,0.00,,,0.00,VWS V14.01,2013-02-06 12:13:00,
2013-02-06 04:18:00,41.9,41.9,-100.00,SW,224,7.0,8.0,-999,0.00,,,0.00,VWS V14.01,2013-02-06 12:18:00,
2013-02-06 04:23:00,42.0,42.0,-100.00,WSW,242,5.0,9.0,-999,0.00,,,0.00,VWS V14.01,2013-02-06 12:23:00,
2013-02-06 04:28:00,42.9,42.9,-100.00,West,261,6.0,9.0,-999,0.00,,,0.00,VWS V14.01,2013-02-06 12:28:00,
2013-02-06 04:33:00,43.3,43.3,-100.00,WSW,258,4.0,9.0,-999,0.00,,,0.00,VWS V14.01,2013-02-06 12:33:00,
2013-02-06 04:39:00,43.0,43.0,-100.00,SW,233,5.0,9.0,-999,0.00,,,0.00,VWS V14.01,2013-02-06 12:39:00,
2013-02-06 04:44:00,42.7,42.7,-100.00,WSW,239,4.0,9.0,-999,0.00,,,0.00,VWS V14.01,2013-02-06 12:44:00,
2013-02-06 04:49:00,42.7,42.7,-100.00,West,264,3.0,9.0,-999,0.00,,,0.00,VWS V14.01,2013-02-06 12:49:00,
2013-02-06 04:54:00,42.8,42.8,-100.00,West,264,3.0,9.0,-999,0.00,,,0.00,VWS V14.01,2013-02-06 12:54:00,
2013-02-06 04:59:00,42.3,42.3,-100.00,WSW,242,4.0,9.0,-999,0.00,,,0.00,VWS V14.01,2013-02-06 12:59:00,
2013-02-06 05:05:00,42.2,42.2,-100.00,NNW,332,2.0,8.0,-999,0.00,,,0.00,VWS V14.01,2013-02-06 13:05:00,
2013-02-06 05:11:00,42.1,42.1,-100.00,NW,323,3.0,8.0,-999,0.00,,,0.00,VWS V14.01,2013-02-06 13:11:00,
2013-02-06 05:16:00,42.0,42.0,-100.00,WSW,237,2.0,8.0,-999,0.00,,,0.00,VWS V14.01,2013-02-06 13:16:00,
2013-02-06 05:21:00,41.7,41.7,-100.00,WSW,252,1.0,8.0,-999,0.00,,,0.00,VWS V14.01,2013-02-06 13:21:00,
2013-02-06 05:26:00,40.8,40.8,-100.00,SW,230,1.0,8.0,-999,0.00,,,0.00,VWS V14.01,2013-02-06 13:26:00,
2013-02-06 05:31:00,42.1,42.1,-100.00,SW,229,3.0,4.0,-999,0.00,,,0.00,VWS V14.01,2013-02-06 13:31:00,
2013-02-06 05:36:00,42.1,42.1,-100.00,West,269,3.0,7.0,-999,0.00,,,0.00,VWS V14.01,2013-02-06 13:36:00,
2013-02-06 05:41:00,42.3,42.3,-100.00,WSW,252,7.0,9.0,-999,0.00,,,0.00,VWS V14.01,2013-02-06 13:41:00,
2013-02-06 05:46:00,41.8,41.8,-100.00,SSW,202,6.0,9.0,-999,0.00,,,0.00,VWS V14.01,2013-02-06 13:46:00,
2013-02-06 05:51:00,42.4,42.4,-100.00,WSW,254,5.0,9.0,-999,0.00,,,0.00,VWS V14.01,2013-02-06 13:51:00,
2013-02-06 05:58:00,42.3,42.3,-100.00,SW,230,5.0,9.0,-999,0.00,,,0.00,VWS V14.01,2013-02-06 13:58:00,
2013-02-06 06:03:00,41.7,41.7,-100.00,SW,230,6.0,8.0,-999,0.00,,,0.00,VWS V14.01,2013-02-06 14:03:00,
2013-02-06 06:08:00,42.1,42.1,-100.00,SW,230,3.0,8.0,-999,0.00,,,0.00,VWS V14.01,2013-02-06 14:08:00,
2013-02-06 06:13:00,41.8,41.8,-100.00,SW,232,5.0,8.0,-999,0.00,,,0.00,VWS V14.01,2013-02-06 14:13:00,
2013-02-06 06:19:00,41.9,41.9,-100.00,South,188,8.0,10.0,-999,0.00,,,0.00,VWS V14.01,2013-02-06 14:19:00,
2013-02-06 06:24:00,41.6,41.6,-100.00,SW,227,7.0,10.0,-999,0.00,,,0.00,VWS V14.01,2013-02-06 14:24:00,
2013-02-06 06:29:00,42.1,42.1,-100.00,SW,218,7.0,11.0,-999,0.00,,,0.00,VWS V14.01,2013-02-06 14:29:00,
2013-02-06 06:35:00,42.3,42.3,-100.00,SSW,213,4.0,11.0,-999,0.00,,,0.00,VWS V14.01,2013-02-06 14:35:00,
2013-02-06 06:40:00,42.5,42.5,-100.00,SW,233,5.0,11.0,-999,0.00,,,0.00,VWS V14.01,2013-02-06 14:40:00,
2013-02-06 06:45:00,42.7,42.7,-100.00,SW,221,5.0,11.0,-999,0.00,,,0.00,VWS V14.01,2013-02-06 14:45:00,
2013-02-06 06:50:00,42.7,42.7,-100.00,SW,221,6.0,11.0,-999,0.00,,,0.00,VWS V14.01,2013-02-06 14:50:00,
2013-02-06 06:55:00,42.5,42.5,-100.00,WSW,245,5.0,11.0,-999,0.00,,,0.00,VWS V14.01,2013-02-06 14:55:00,
2013-02-06 07:00:00,42.2,42.2,-100.00,SW,220,4.0,4.0,-999,0.00,,,0.00,VWS V14.01,2013-02-06 15:00:00,
2013-02-06 07:05:00,41.5,41.5,-100.00,SSW,192,3.0,9.0,-999,0.00,,,0.00,VWS V14.01,2013-02-06 15:05:00,
2013-02-06 07:10:00,42.1,42.1,-100.00,SW,221,5.0,9.0,-999,0.00,,,0.00,VWS V14.01,2013-02-06 15:10:00,
2013-02-06 07:15:00,42.2,42.2,-100.00,SSW,194,6.0,10.0,-999,0.00,,,0.00,VWS V14.01,2013-02-06 15:15:00,
2013-02-06 07:20:00,42.2,42.2,-100.00,SW,228,6.0,10.0,-999,0.00,,,0.00,VWS V14.01,2013-02-06 15:20:00,
2013-02-06 07:25:00,41.9,41.9,-100.00,SW,219,5.0,10.0,-999,0.00,,,0.00,VWS V14.01,2013-02-06 15:25:00,
2013-02-06 07:30:00,41.8,41.8,-100.00,South,188,5.0,6.0,-999,0.00,,,0.00,VWS V14.01,2013-02-06 15:30:00,
2013-02-06 07:35:00,41.9,41.9,-100.00,South,191,3.0,7.0,-999,0.00,,,0.00,VWS V14.01,2013-02-06 15:35:00,
2013-02-06 07:40:00,42.1,42.1,-100.00,SW,216,4.0,9.0,-999,0.00,,,0.00,VWS V14.01,2013-02-06 15:40:00,
2013-02-06 07:45:00,42.4,42.4,-100.00,SSW,200,4.0,9.0,-999,0.00,,,0.00,VWS V14.01,2013-02-06 15:45:00,
2013-02-06 07:50:00,42.4,42.4,-100.00,SSW,207,5.0,9.0,-999,0.00,,,0.00,VWS V14.01,2013-02-06 15:50:00,
2013-02-06 07:55:00,42.6,42.6,-100.00,SSW,208,4.0,9.0,-999,0.00,,,0.00,VWS V14.01,2013-02-06 15:55:00,
2013-02-06 08:00:00,43.2,43.2,-100.00,WSW,253,3.0,5.0,-999,0.00,,,0.00,VWS V14.01,2013-02-06 16:00:00,
2013-02-06 08:05:00,44.0,44.0,-100.00,West,267,2.0,10.0,-999,0.00,,,0.02,VWS V14.01,2013-02-06 16:05:00,
2013-02-06 08:10:00,43.9,43.9,-100.00,West,263,2.0,10.0,-999,0.00,,,0.00,VWS V14.01,2013-02-06 16:10:00,
2013-02-06 08:15:00,44.0,44.0,-100.00,SW,228,2.0,10.0,-999,0.00,,,0.00,VWS V14.01,2013-02-06 16:15:00,
2013-02-06 08:20:00,44.5,44.5,-100.00,West,275,5.0,10.0,-999,0.00,,,0.00,VWS V14.01,2013-02-06 16:20:00,
2013-02-06 08:25:00,44.6,44.6,-100.00,West,280,3.0,10.0,-999,0.00,,,0.00,VWS V14.01,2013-02-06 16:25:00,
2013-02-06 08:30:00,44.7,44.7,-100.00,West,262,4.0,5.0,-999,0.00,,,0.00,VWS V14.01,2013-02-06 16:30:00,
2013-02-06 08:35:00,45.2,45.2,-100.00,West,276,3.0,8.0,-999,0.00,,,0.00,VWS V14.01,2013-02-06 16:35:00,
2013-02-06 08:40:00,45.4,45.4,-100.00,WSW,257,2.0,8.0,-999,0.00,,,0.00,VWS V14.01,2013-02-06 16:40:00,
2013-02-06 08:45:00,45.6,45.6,-100.00,West,259,4.0,9.0,-999,0.00,,,0.00,VWS V14.01,2013-02-06 16:45:00,
2013-02-06 08:50:00,45.6,45.6,-100.00,WSW,250,3.0,10.0,-999,0.00,,,0.00,VWS V14.01,2013-02-06 16:50:00,
2013-02-06 08:56:00,44.6,44.6,-100.00,WSW,251,2.0,10.0,-999,0.00,,,0.00,VWS V14.01,2013-02-06 16:56:00,
2013-02-06 09:01:00,44.0,44.0,-100.00,WSW,251,1.0,2.0,-999,0.00,,,0.00,VWS V14.01,2013-02-06 17:01:00,
2013-02-06 09:06:00,45.4,45.4,-100.00,WSW,250,1.0,4.0,-999,0.00,,,0.00,VWS V14.01,2013-02-06 17:06:00,
2013-02-06 09:11:00,45.2,45.2,-100.00,WSW,251,1.0,4.0,-999,0.00,,,0.00,VWS V14.01,2013-02-06 17:11:00,
2013-02-06 09:16:00,46.1,46.1,-100.00,WSW,251,2.0,4.0,-999,0.00,,,0.00,VWS V14.01,2013-02-06 17:16:00,
2013-02-06 09:21:00,45.7,45.7,-100.00,WSW,250,2.0,4.0,-999,0.00,,,0.00,VWS V14.01,2013-02-06 17:21:00,
2013-02-06 09:26:00,45.7,45.7,-100.00,WSW,251,2.0,4.0,-999,0.00,,,0.00,VWS V14.01,2013-02-06 17:26:00,
2013-02-06 09:31:00,45.7,45.7,-100.00,WSW,251,2.0,2.0,-999,0.00,,,0.00,VWS V14.01,2013-02-06 17:31:00,
2013-02-06 09:36:00,45.8,45.8,-100.00,WSW,250,2.0,5.0,-999,0.00,,,0.00,VWS V14.01,2013-02-06 17:36:00,
2013-02-06 09:41:00,46.6,46.6,-100.00,WSW,251,1.0,5.0,-999,0.00,,,0.00,VWS V14.01,2013-02-06 17:41:00,
2013-02-06 09:46:00,46.8,46.8,-100.00,WSW,250,2.0,5.0,-999,0.00,,,0.00,VWS V14.01,2013-02-06 17:46:00,
2013-02-06 09:51:00,47.8,47.8,-100.00,WSW,251,1.0,5.0,-999,0.00,,,0.00,VWS V14.01,2013-02-06 17:51:00,
2013-02-06 09:56:00,48.5,48.5,-100.00,WSW,251,1.0,5.0,-999,0.00,,,0.00,VWS V14.01,2013-02-06 17:56:00,
2013-02-06 10:01:00,48.6,48.6,-100.00,WSW,251,2.0,3.0,-999,0.00,,,0.00,VWS V14.01,2013-02-06 18:01:00,
2013-02-06 10:06:00,48.8,48.8,-100.00,WSW,247,4.0,10.0,-999,0.00,,,0.00,VWS V14.01,2013-02-06 18:06:00,
2013-02-06 10:11:00,49.4,49.4,-100.00,WSW,247,4.0,10.0,-999,0.00,,,0.00,VWS V14.01,2013-02-06 18:11:00,
2013-02-06 10:16:00,49.9,49.9,-100.00,WSW,247,3.0,10.0,-999,0.00,,,0.00,VWS V14.01,2013-02-06 18:16:00,
2013-02-06 10:21:00,50.0,50.0,-100.00,West,262,1.0,10.0,-999,0.00,,,0.00,VWS V14.01,2013-02-06 18:21:00,
2013-02-06 10:26:00,50.3,50.3,-100.00,SW,218,5.0,10.0,-999,0.00,,,0.00,VWS V14.01,2013-02-06 18:26:00,
2013-02-06 10:31:00,50.1,50.1,-100.00,North,2,1.0,6.0,-999,0.00,,,0.00,VWS V14.01,2013-02-06 18:31:00,
2013-02-06 10:36:00,50.2,50.2,-100.00,North,4,1.0,6.0,-999,0.00,,,0.00,VWS V14.01,2013-02-06 18:36:00,
2013-02-06 10:41:00,50.3,50.3,-100.00,NNE,25,1.0,6.0,-999,0.00,,,0.00,VWS V14.01,2013-02-06 18:41:00,
2013-02-06 10:46:00,50.3,50.3,-100.00,NE,49,3.0,6.0,-999,0.00,,,0.00,VWS V14.01,2013-02-06 18:46:00,
2013-02-06 10:51:00,50.5,50.5,-100.00,NE,44,5.0,6.0,-999,0.00,,,0.00,VWS V14.01,2013-02-06 18:51:00,
2013-02-06 10:56:00,50.8,50.8,-100.00,NE,44,3.0,6.0,-999,0.00,,,0.00,VWS V14.01,2013-02-06 18:56:00,
2013-02-06 11:01:00,51.3,51.3,-100.00,NE,44,2.0,3.0,-999,0.00,,,0.00,VWS V14.01,2013-02-06 19:01:00,
2013-02-06 11:06:00,51.3,51.3,-100.00,NNE,26,1.0,7.0,-999,0.00,,,0.00,VWS V14.01,2013-02-06 19:06:00,
2013-02-06 11:11:00,51.9,51.9,-100.00,NE,51,2.0,7.0,-999,0.00,,,0.00,VWS V14.01,2013-02-06 19:11:00,
2013-02-06 11:16:00,52.1,52.1,-100.00,NW,321,3.0,9.0,-999,0.00,,,0.00,VWS V14.01,2013-02-06 19:16:00,
2013-02-06 11:21:00,52.1,52.1,-100.00,NE,37,4.0,9.0,-999,0.00,,,0.00,VWS V14.01,2013-02-06 19:21:00,
2013-02-06 11:26:00,52.2,52.2,-100.00,NNW,344,2.0,9.0,-999,0.00,,,0.00,VWS V14.01,2013-02-06 19:26:00,
2013-02-06 11:31:00,52.9,52.9,-100.00,SW,234,5.0,6.0,-999,0.00,,,0.00,VWS V14.01,2013-02-06 19:31:00,
2013-02-06 11:36:00,53.4,53.4,-100.00,East,82,2.0,6.0,-999,0.00,,,0.00,VWS V14.01,2013-02-06 19:36:00,
2013-02-06 11:41:00,53.0,53.0,-100.00,North,1,3.0,7.0,-999,0.00,,,0.00,VWS V14.01,2013-02-06 19:41:00,
2013-02-06 11:46:00,53.2,53.2,-100.00,NE,49,2.0,7.0,-999,0.00,,,0.00,VWS V14.01,2013-02-06 19:46:00,
2013-02-06 11:51:00,53.3,53.3,-100.00,NE,48,5.0,9.0,-999,0.00,,,0.00,VWS V14.01,2013-02-06 19:51:00,
2013-02-06 11:56:00,54.2,54.2,-100.00,WSW,250,3.0,9.0,-999,0.00,,,0.02,VWS V14.01,2013-02-06 19:56:00,
2013-02-06 12:01:00,54.0,54.0,-100.00,NNE,23,2.0,7.0,-999,0.00,,,0.00,VWS V14.01,2013-02-06 20:01:00,
2013-02-06 12:06:00,54.0,54.0,-100.00,NE,48,3.0,8.0,-999,0.00,,,0.00,VWS V14.01,2013-02-06 20:06:00,
2013-02-06 12:12:00,54.0,54.0,-100.00,NE,50,3.0,8.0,-999,0.00,,,0.00,VWS V14.01,2013-02-06 20:12:00,
2013-02-06 12:17:00,54.2,54.2,-100.00,ENE,63,2.0,9.0,-999,0.00,,,0.00,VWS V14.01,2013-02-06 20:17:00,
2013-02-06 12:22:00,54.6,54.6,-100.00,NNE,21,2.0,9.0,-999,0.00,,,0.00,VWS V14.01,2013-02-06 20:22:00,
2013-02-06 12:27:00,54.0,54.0,-100.00,NE,42,7.0,11.0,-999,0.00,,,0.00,VWS V14.01,2013-02-06 20:27:00,
2013-02-06 12:32:00,55.9,55.9,-100.00,NE,35,2.0,3.0,-999,0.00,,,0.00,VWS V14.01,2013-02-06 20:32:00,
2013-02-06 12:37:00,55.3,55.3,-100.00,ENE,64,1.0,6.0,-999,0.00,,,0.00,VWS V14.01,2013-02-06 20:37:00,
2013-02-06 12:42:00,55.4,55.4,-100.00,NNW,340,5.0,8.0,-999,0.00,,,0.00,VWS V14.01,2013-02-06 20:42:00,
2013-02-06 12:47:00,55.3,55.3,-100.00,NNW,346,8.0,8.0,-999,0.00,,,0.00,VWS V14.01,2013-02-06 20:47:00,
2013-02-06 12:52:00,55.2,55.2,-100.00,NW,314,6.0,9.0,-999,0.00,,,0.00,VWS V14.01,2013-02-06 20:52:00,
2013-02-06 12:57:00,56.0,56.0,-100.00,West,270,1.0,9.0,-999,0.00,,,0.00,VWS V14.01,2013-02-06 20:57:00,
2013-02-06 13:02:00,55.5,55.5,-100.00,ENE,63,3.0,5.0,-999,0.00,,,0.00,VWS V14.01,2013-02-06 21:02:00,
2013-02-06 13:07:00,55.7,55.7,-100.00,NNE,15,2.0,8.0,-999,0.00,,,0.00,VWS V14.01,2013-02-06 21:07:00,
2013-02-06 13:12:00,56.9,56.9,-100.00,SSW,210,5.0,8.0,-999,0.00,,,0.00,VWS V14.01,2013-02-06 21:12:00,
2013-02-06 13:17:00,56.7,56.7,-100.00,WSW,251,2.0,8.0,-999,0.00,,,0.00,VWS V14.01,2013-02-06 21:17:00,
2013-02-06 13:22:00,56.0,56.0,-100.00,WSW,248,2.0,8.0,-999,0.00,,,0.00,VWS V14.01,2013-02-06 21:22:00,
2013-02-06 13:27:00,55.9,55.9,-100.00,NE,47,6.0,8.0,-999,0.00,,,0.00,VWS V14.01,2013-02-06 21:27:00,
2013-02-06 13:32:00,56.5,56.5,-100.00,NE,54,2.0,6.0,-999,0.00,,,0.00,VWS V14.01,2013-02-06 21:32:00,
2013-02-06 13:37:00,57.3,57.3,-100.00,NW,314,1.0,6.0,-999,0.00,,,0.00,VWS V14.01,2013-02-06 21:37:00,
2013-02-06 13:42:00,56.8,56.8,-100.00,NNW,348,2.0,9.0,-999,0.00,,,0.00,VWS V14.01,2013-02-06 21:42:00,
2013-02-06 13:47:00,57.0,57.0,-100.00,North,349,2.0,9.0,-999,0.00,,,0.00,VWS V14.01,2013-02-06 21:47:00,
2013-02-06 13:52:00,57.0,57.0,-100.00,East,86,1.0,9.0,-999,0.00,,,0.00,VWS V14.01,2013-02-06 21:52:00,
2013-02-06 13:57:00,57.8,57.8,-100.00,WSW,238,2.0,9.0,-999,0.00,,,0.00,VWS V14.01,2013-02-06 21:57:00,
2013-02-06 14:02:00,58.2,58.2,-100.00,West,261,4.0,5.0,-999,0.00,,,0.00,VWS V14.01,2013-02-06 22:02:00,
2013-02-06 14:07:00,57.7,57.7,-100.00,NW,307,1.0,9.0,-999,0.00,,,0.00,VWS V14.01,2013-02-06 22:07:00,
2013-02-06 14:12:00,57.6,57.6,-100.00,North,350,4.0,9.0,-999,0.00,,,0.00,VWS V14.01,2013-02-06 22:12:00,
2013-02-06 14:17:00,56.7,56.7,-100.00,WNW,282,3.0,9.0,-999,0.00,,,0.00,VWS V14.01,2013-02-06 22:17:00,
2013-02-06 14:22:00,56.6,56.6,-100.00,WNW,282,2.0,9.0,-999,0.00,,,0.00,VWS V14.01,2013-02-06 22:22:00,
2013-02-06 14:27:00,57.1,57.1,-100.00,West,260,3.0,9.0,-999,0.00,,,0.00,VWS V14.01,2013-02-06 22:27:00,
2013-02-06 14:32:00,56.7,56.7,-100.00,WSW,255,1.0,5.0,-999,0.00,,,0.00,VWS V14.01,2013-02-06 22:32:00,
2013-02-06 14:37:00,56.3,56.3,-100.00,WSW,254,1.0,6.0,-999,0.00,,,0.00,VWS V14.01,2013-02-06 22:37:00,
2013-02-06 14:42:00,56.8,56.8,-100.00,West,259,1.0,6.0,-999,0.00,,,0.00,VWS V14.01,2013-02-06 22:42:00,
2013-02-06 14:47:00,57.5,57.5,-100.00,West,259,5.0,6.0,-999,0.00,,,0.00,VWS V14.01,2013-02-06 22:47:00,
2013-02-06 14:52:00,58.6,58.6,-100.00,SW,230,6.0,6.0,-999,0.00,,,0.00,VWS V14.01,2013-02-06 22:52:00,
2013-02-06 14:57:00,58.3,58.3,-100.00,West,274,6.0,7.0,-999,0.00,,,0.00,VWS V14.01,2013-02-06 22:57:00,
2013-02-06 15:02:00,58.4,58.4,-100.00,WSW,247,6.0,7.0,-999,0.00,,,0.00,VWS V14.01,2013-02-06 23:02:00,
2013-02-06 15:07:00,58.0,58.0,-100.00,WSW,249,2.0,8.0,-999,0.00,,,0.00,VWS V14.01,2013-02-06 23:07:00,
2013-02-06 15:12:00,57.5,57.5,-100.00,WSW,249,2.0,8.0,-999,0.00,,,0.00,VWS V14.01,2013-02-06 23:12:00,
2013-02-06 15:17:00,57.9,57.9,-100.00,WSW,249,1.0,8.0,-999,0.00,,,0.00,VWS V14.01,2013-02-06 23:17:00,
2013-02-06 15:23:00,57.9,57.9,-100.00,WSW,249,3.0,8.0,-999,0.00,,,0.00,VWS V14.01,2013-02-06 23:23:00,
2013-02-06 15:28:00,58.1,58.1,-100.00,SW,224,4.0,8.0,-999,0.00,,,0.00,VWS V14.01,2013-02-06 23:28:00,
2013-02-06 15:33:00,57.9,57.9,-100.00,SW,225,2.0,7.0,-999,0.00,,,0.00,VWS V14.01,2013-02-06 23:33:00,
2013-02-06 15:38:00,58.2,58.2,-100.00,SW,224,3.0,7.0,-999,0.00,,,0.00,VWS V14.01,2013-02-06 23:38:00,
2013-02-06 15:43:00,57.7,57.7,-100.00,SW,228,1.0,7.0,-999,0.00,,,0.00,VWS V14.01,2013-02-06 23:43:00,
2013-02-06 15:48:00,58.1,58.1,-100.00,SW,227,4.0,7.0,-999,0.00,,,0.00,VWS V14.01,2013-02-06 23:48:00,
2013-02-06 15:53:00,58.0,58.0,-100.00,SW,228,3.0,7.0,-999,0.00,,,0.00,VWS V14.01,2013-02-06 23:53:00,
2013-02-06 15:58:00,57.6,57.6,-100.00,SW,228,2.0,7.0,-999,0.00,,,0.00,VWS V14.01,2013-02-06 23:58:00,
2013-02-06 16:03:00,57.7,57.7,-100.00,SW,227,1.0,4.0,-999,0.00,,,0.00,VWS V14.01,2013-02-07 00:03:00,
2013-02-06 16:08:00,57.9,57.9,-100.00,SW,227,2.0,5.0,-999,0.00,,,0.00,VWS V14.01,2013-02-07 00:08:00,
2013-02-06 16:13:00,57.0,57.0,-100.00,SW,227,2.0,5.0,-999,0.00,,,0.00,VWS V14.01,2013-02-07 00:13:00,
2013-02-06 16:18:00,56.8,56.8,-100.00,SW,228,2.0,5.0,-999,0.00,,,0.00,VWS V14.01,2013-02-07 00:18:00,
2013-02-06 16:23:00,56.4,56.4,-100.00,NNW,336,0.0,5.0,-999,0.00,,,0.00,VWS V14.01,2013-02-07 00:23:00,
2013-02-06 16:28:00,56.4,56.4,-100.00,West,266,4.0,5.0,-999,0.00,,,0.00,VWS V14.01,2013-02-07 00:28:00,
2013-02-06 16:33:00,56.3,56.3,-100.00,West,279,4.0,9.0,-999,0.00,,,0.00,VWS V14.01,2013-02-07 00:33:00,
2013-02-06 16:38:00,56.0,56.0,-100.00,WSW,253,6.0,9.0,-999,0.00,,,0.00,VWS V14.01,2013-02-07 00:38:00,
2013-02-06 16:43:00,55.6,55.6,-100.00,WSW,254,4.0,9.0,-999,0.00,,,0.00,VWS V14.01,2013-02-07 00:43:00,
2013-02-06 16:48:00,54.9,54.9,-100.00,WSW,244,6.0,9.0,-999,0.00,,,0.00,VWS V14.01,2013-02-07 00:48:00,
2013-02-06 16:53:00,54.3,54.3,-100.00,WSW,239,3.0,9.0,-999,0.00,,,0.00,VWS V14.01,2013-02-07 00:53:00,
2013-02-06 16:58:00,53.8,53.8,-100.00,SW,231,8.0,9.0,-999,0.00,,,0.00,VWS V14.01,2013-02-07 00:58:00,
2013-02-06 17:03:00,53.2,53.2,-100.00,SW,229,6.0,10.0,-999,0.00,,,0.00,VWS V14.01,2013-02-07 01:03:00,
2013-02-06 17:08:00,52.4,52.4,-100.00,WSW,241,6.0,10.0,-999,0.00,,,0.00,VWS V14.01,2013-02-07 01:08:00,
2013-02-06 17:13:00,51.8,51.8,-100.00,SW,232,7.0,10.0,-999,0.00,,,0.00,VWS V14.01,2013-02-07 01:13:00,
2013-02-06 17:18:00,51.4,51.4,-100.00,SW,226,6.0,10.0,-999,0.00,,,0.00,VWS V14.01,2013-02-07 01:18:00,
2013-02-06 17:23:00,51.2,51.2,-100.00,SW,235,7.0,11.0,-999,0.00,,,0.00,VWS V14.01,2013-02-07 01:23:00,
2013-02-06 17:28:00,50.7,50.7,-100.00,SW,231,6.0,11.0,-999,0.00,,,0.00,VWS V14.01,2013-02-07 01:28:00,
2013-02-06 17:34:00,50.2,50.2,-100.00,WSW,238,9.0,11.0,-999,0.00,,,0.00,VWS V14.01,2013-02-07 01:34:00,
2013-02-06 17:39:00,49.6,49.6,-100.00,SW,225,9.0,11.0,-999,0.00,,,0.00,VWS V14.01,2013-02-07 01:39:00,
2013-02-06 17:44:00,49.6,49.6,-100.00,SW,231,5.0,11.0,-999,0.00,,,0.00,VWS V14.01,2013-02-07 01:44:00,
2013-02-06 17:50:00,49.2,49.2,-100.00,SW,230,6.0,13.0,-999,0.00,,,0.00,VWS V14.01,2013-02-07 01:50:00,
2013-02-06 17:56:00,49.0,49.0,-100.00,SW,221,9.0,13.0,-999,0.00,,,0.00,VWS V14.01,2013-02-07 01:56:00,
2013-02-06 18:01:00,48.5,48.5,-100.00,SW,232,13.0,14.0,-999,0.00,,,0.00,VWS V14.01,2013-02-07 02:01:00,
2013-02-06 18:06:00,48.4,48.4,-100.00,SW,231,9.0,15.0,-999,0.00,,,0.00,VWS V14.01,2013-02-07 02:06:00,
2013-02-06 18:11:00,48.3,48.3,-100.00,SW,225,8.0,16.0,-999,0.00,,,0.00,VWS V14.01,2013-02-07 02:11:00,
2013-02-06 18:16:00,48.1,48.1,-100.00,SW,230,10.0,16.0,-999,0.00,,,0.00,VWS V14.01,2013-02-07 02:16:00,
2013-02-06 18:21:00,47.7,47.7,-100.00,SW,230,11.0,16.0,-999,0.00,,,0.00,VWS V14.01,2013-02-07 02:21:00,
2013-02-06 18:26:00,47.3,47.3,-100.00,SW,228,11.0,16.0,-999,0.00,,,0.00,VWS V14.01,2013-02-07 02:26:00,
2013-02-06 18:31:00,47.0,47.0,-100.00,SW,228,8.0,13.0,-999,0.00,,,0.00,VWS V14.01,2013-02-07 02:31:00,
2013-02-06 18:37:00,46.6,46.6,-100.00,SW,226,13.0,16.0,-999,0.00,,,0.00,VWS V14.01,2013-02-07 02:37:00,
2013-02-06 18:42:00,46.7,46.7,-100.00,SW,219,10.0,16.0,-999,0.00,,,0.00,VWS V14.01,2013-02-07 02:42:00,
2013-02-06 18:47:00,46.3,46.3,-100.00,SW,222,8.0,16.0,-999,0.00,,,0.00,VWS V14.01,2013-02-07 02:47:00,
2013-02-06 18:52:00,46.2,46.2,-100.00,SW,228,11.0,16.0,-999,0.00,,,0.00,VWS V14.01,2013-02-07 02:52:00,
2013-02-06 18:57:00,45.8,45.8,-100.00,SW,228,7.0,16.0,-999,0.00,,,0.00,VWS V14.01,2013-02-07 02:57:00,
2013-02-06 19:02:00,46.0,46.0,-100.00,SW,236,8.0,14.0,-999,0.00,,,0.00,VWS V14.01,2013-02-07 03:02:00,
2013-02-06 19:08:00,45.6,45.6,-100.00,SW,223,9.0,14.0,-999,0.00,,,0.00,VWS V14.01,2013-02-07 03:08:00,
2013-02-06 19:13:00,45.6,45.6,-100.00,SW,216,7.0,14.0,-999,0.00,,,0.00,VWS V14.01,2013-02-07 03:13:00,
2013-02-06 19:19:00,45.6,45.6,-100.00,SW,232,4.0,14.0,-999,0.00,,,0.00,VWS V14.01,2013-02-07 03:19:00,
2013-02-06 19:24:00,44.8,44.8,-100.00,SW,233,5.0,14.0,-999,0.00,,,0.00,VWS V14.01,2013-02-07 03:24:00,
2013-02-06 19:29:00,45.4,45.4,-100.00,WSW,251,4.0,14.0,-999,0.00,,,0.00,VWS V14.01,2013-02-07 03:29:00,
2013-02-06 19:34:00,45.2,45.2,-100.00,WSW,244,6.0,6.0,-999,0.00,,,0.00,VWS V14.01,2013-02-07 03:34:00,
2013-02-06 19:39:00,44.8,44.8,-100.00,WSW,244,4.0,7.0,-999,0.00,,,0.00,VWS V14.01,2013-02-07 03:39:00,
2013-02-06 19:44:00,45.0,45.0,-100.00,WSW,245,3.0,7.0,-999,0.00,,,0.00,VWS V14.01,2013-02-07 03:44:00,
2013-02-06 19:50:00,44.8,44.8,-100.00,WSW,244,3.0,7.0,-999,0.00,,,0.00,VWS V14.01,2013-02-07 03:50:00,
2013-02-06 19:55:00,44.4,44.4,-100.00,WSW,244,1.0,7.0,-999,0.00,,,0.00,VWS V14.01,2013-02-07 03:55:00,
2013-02-06 20:00:00,44.5,44.5,-100.00,WSW,245,1.0,2.0,-999,0.00,,,0.00,VWS V14.01,2013-02-07 04:00:00,
2013-02-06 20:06:00,44.2,44.2,-100.00,WSW,244,2.0,3.0,-999,0.00,,,0.00,VWS V14.01,2013-02-07 04:06:00,
2013-02-06 20:11:00,43.2,43.2,-100.00,WSW,245,2.0,3.0,-999,0.00,,,0.00,VWS V14.01,2013-02-07 04:11:00,
2013-02-06 20:16:00,43.3,43.3,-100.00,WSW,245,3.0,3.0,-999,0.00,,,0.00,VWS V14.01,2013-02-07 04:16:00,
2013-02-06 20:21:00,42.5,42.5,-100.00,WSW,245,2.0,4.0,-999,0.00,,,0.00,VWS V14.01,2013-02-07 04:21:00,
2013-02-06 20:26:00,42.7,42.7,-100.00,WSW,245,3.0,4.0,-999,0.00,,,0.00,VWS V14.01,2013-02-07 04:26:00,
2013-02-06 20:32:00,42.9,42.9,-100.00,WSW,245,5.0,6.0,-999,0.00,,,0.00,VWS V14.01,2013-02-07 04:32:00,
2013-02-06 20:37:00,42.8,42.8,-100.00,WSW,244,5.0,7.0,-999,0.00,,,0.00,VWS V14.01,2013-02-07 04:37:00,
2013-02-06 20:42:00,43.0,43.0,-100.00,WSW,241,6.0,7.0,-999,0.00,,,0.00,VWS V14.01,2013-02-07 04:42:00,
2013-02-06 20:49:00,42.9,42.9,-100.00,WSW,241,2.0,7.0,-999,0.00,,,0.00,VWS V14.01,2013-02-07 04:49:00,
2013-02-06 20:55:00,42.9,42.9,-100.00,WSW,241,3.0,7.0,-999,0.00,,,0.00,VWS V14.01,2013-02-07 04:55:00,
2013-02-06 21:00:00,42.5,42.5,-100.00,WSW,241,3.0,7.0,-999,0.00,,,0.00,VWS V14.01,2013-02-07 05:00:00,
2013-02-06 21:01:00,42.2,42.2,-100.00,WSW,241,3.0,4.0,-999,0.00,,,0.00,VWS V14.01,2013-02-07 05:01:00,
2013-02-06 21:06:00,42.9,42.9,-100.00,WSW,240,3.0,5.0,-999,0.00,,,0.00,VWS V14.01,2013-02-07 05:06:00,
2013-02-06 21:10:00,42.7,42.7,-100.00,WSW,241,3.0,5.0,-999,0.00,,,0.00,VWS V14.01,2013-02-07 05:10:00,
2013-02-06 21:15:00,42.7,42.7,-100.00,WSW,241,3.0,5.0,-999,0.00,,,0.00,VWS V14.01,2013-02-07 05:15:00,
2013-02-06 21:20:00,42.5,42.5,-100.00,WSW,241,3.0,5.0,-999,0.00,,,0.00,VWS V14.01,2013-02-07 05:20:00,
2013-02-06 21:25:00,42.0,42.0,-100.00,WSW,241,2.0,5.0,-999,0.00,,,0.00,VWS V14.01,2013-02-07 05:25:00,
2013-02-06 21:30:00,41.7,41.7,-100.00,WSW,241,2.0,5.0,-999,0.00,,,0.00,VWS V14.01,2013-02-07 05:30:00,
2013-02-06 21:35:00,42.3,42.3,-100.00,WSW,241,2.0,4.0,-999,0.00,,,0.00,VWS V14.01,2013-02-07 05:35:00,
2013-02-06 21:40:00,42.4,42.4,-100.00,WSW,241,2.0,4.0,-999,0.00,,,0.00,VWS V14.01,2013-02-07 05:40:00,
2013-02-06 21:47:00,42.7,42.7,-100.00,WSW,241,1.0,4.0,-999,0.00,,,0.00,VWS V14.01,2013-02-07 05:47:00,
2013-02-06 21:52:00,42.4,42.4,-100.00,WSW,241,2.0,4.0,-999,0.00,,,0.00,VWS V14.01,2013-02-07 05:52:00,
2013-02-06 21:57:00,42.1,42.1,-100.00,WSW,241,1.0,4.0,-999,0.00,,,0.00,VWS V14.01,2013-02-07 05:57:00,
2013-02-06 22:03:00,42.2,42.2,-100.00,WSW,240,1.0,2.0,-999,0.00,,,0.00,VWS V14.01,2013-02-07 06:03:00,
2013-02-06 22:08:00,41.2,41.2,-100.00,WSW,241,1.0,2.0,-999,0.00,,,0.00,VWS V14.01,2013-02-07 06:08:00,
2013-02-06 22:13:00,40.5,40.5,-100.00,WSW,240,3.0,3.0,-999,0.00,,,0.00,VWS V14.01,2013-02-07 06:13:00,
2013-02-06 22:18:00,40.5,40.5,-100.00,WSW,241,1.0,3.0,-999,0.00,,,0.00,VWS V14.01,2013-02-07 06:18:00,
2013-02-06 22:24:00,40.3,40.3,-100.00,WSW,241,2.0,3.0,-999,0.00,,,0.00,VWS V14.01,2013-02-07 06:24:00,
2013-02-06 22:29:00,40.8,40.8,-100.00,WSW,241,2.0,3.0,-999,0.00,,,0.00,VWS V14.01,2013-02-07 06:29:00,
2013-02-06 22:34:00,42.0,42.0,-100.00,WSW,238,3.0,6.0,-999,0.00,,,0.00,VWS V14.01,2013-02-07 06:34:00,
2013-02-06 22:39:00,42.6,42.6,-100.00,WSW,237,2.0,7.0,-999,0.00,,,0.00,VWS V14.01,2013-02-07 06:39:00,
2013-02-06 22:44:00,41.7,41.7,-100.00,WSW,237,4.0,7.0,-999,0.00,,,0.00,VWS V14.01,2013-02-07 06:44:00,
2013-02-06 22:49:00,41.2,41.2,-100.00,WSW,237,2.0,7.0,-999,0.00,,,0.00,VWS V14.01,2013-02-07 06:49:00,
2013-02-06 22:54:00,42.0,42.0,-100.00,WSW,238,2.0,7.0,-999,0.00,,,0.00,VWS V14.01,2013-02-07 06:54:00,
2013-02-06 23:00:00,42.8,42.8,-100.00,WSW,237,2.0,7.0,-999,0.00,,,0.00,VWS V14.01,2013-02-07 07:00:00,
2013-02-06 23:05:00,43.4,43.4,-100.00,WSW,238,3.0,5.0,-999,0.00,,,0.00,VWS V14.01,2013-02-07 07:05:00,
2013-02-06 23:10:00,44.2,44.2,-100.00,WSW,237,3.0,5.0,-999,0.00,,,0.00,VWS V14.01,2013-02-07 07:10:00,
2013-02-06 23:15:00,44.6,44.6,-100.00,WSW,238,5.0,6.0,-999,0.00,,,0.00,VWS V14.01,2013-02-07 07:15:00,
2013-02-06 23:20:00,45.0,45.0,-100.00,WSW,238,3.0,6.0,-999,0.00,,,0.00,VWS V14.01,2013-02-07 07:20:00,
2013-02-06 23:25:00,44.4,44.4,-100.00,WSW,239,3.0,6.0,-999,0.00,,,0.00,VWS V14.01,2013-02-07 07:25:00,
2013-02-06 23:30:00,44.6,44.6,-100.00,WSW,238,3.0,6.0,-999,0.00,,,0.00,VWS V14.01,2013-02-07 07:30:00,
2013-02-06 23:35:00,44.9,44.9,-100.00,WNW,288,4.0,7.0,-999,0.00,,,0.00,VWS V14.01,2013-02-07 07:35:00,
2013-02-06 23:40:00,44.7,44.7,-100.00,WNW,288,3.0,7.0,-999,0.00,,,0.00,VWS V14.01,2013-02-07 07:40:00,
2013-02-06 23:45:00,44.4,44.4,-100.00,WNW,288,3.0,7.0,-999,0.00,,,0.00,VWS V14.01,2013-02-07 07:45:00,
2013-02-06 23:50:00,44.9,44.9,-100.00,WNW,288,3.0,7.0,-999,0.00,,,0.00,VWS V14.01,2013-02-07 07:50:00,
2013-02-06 23:55:00,44.9,44.9,-100.00,WNW,289,2.0,7.0,-999,0.00,,,0.00,VWS V14.01,2013-02-07 07:55:00,